Location: Chefe Valiua
(16.5342°S, 37.2214°E)
Time: 13:10:08
(UTC+00:00)

Envisat - Pass Details

Date: 16 June 2021
Orbit: 764 x 766 km, 98.1° (Epoch: 25 July)

Event Time Altitude Azimuth Distance (km) Brightness Sun altitude
Rises 01:51:11 0° 29° (NNE) 3,212 6.9 -29.1°
Reaches altitude 10° 01:53:36 10° 36° (NE) 2,292 6.1 -28.6°
Maximum altitude 01:58:17 39° 105° (ESE) 1,133 4.2 -27.5°
Enters shadow 02:01:50 17° 166° (SSE) 1,895 5.0 -26.7°
